Weather History for Jackson, MS

Change the Weather History Date:

Monday, February 13, 2012

  Actual Average Record
Temperature  
Mean Temperature 37 °F 49 °F  
Max Temperature 49 °F 60 °F 82 °F (1962)
Min Temperature 25 °F 38 °F 11 °F (1905)
Degree Days  
Heating Degree Days 28 16  
Month to date heating degree days 186 225  
Since 1 July heating degree days 1431 1777  
Cooling Degree Days 0 0  
Month to date cooling degree days 2 0  
Year to date cooling degree days 7 4  
Moisture  
Dew Point 34 °F    
Average Humidity 62    
Maximum Humidity 93    
Minimum Humidity 31    
Precipitation  
Precipitation 0.93 in 0.17 in 3.57 in (1950)
Month to date precipitation 4.94 2.25  
Year to date precipitation 8.96 7.22  
Sea Level Pressure  
Sea Level Pressure 30.09 in    
Wind  
Wind Speed 7 mph (SE)    
Max Wind Speed 22 mph    
Max Gust Speed 32 mph    
Visibility 7 miles    
Events Rain    
T = Trace of Precipitation, MM = Missing Value Source: NWS Daily Summary

Daily Weather History Graph

Daily Weather History Graph

Search for Another Location

Airport:

Trip Planner

Search our weather history database for the weather conditions in past years. The results will help you decide how hot, cold, wet, or windy it might be!

Date:

Astronomy

Feb. 13, 2012 Rise Set
Actual Time 6:45 AM CST 5:44 PM CST
Civil Twilight 6:20 AM CST 6:09 PM CST
Nautical Twilight 5:51 AM CST 6:38 PM CST
Astronomical Twilight 5:22 AM CST 7:06 PM CST
Moon No Moon Rise 10:11 AM CST (2/13)
Length of Visible Light 11h 49m
Length of Day
10h 58m
Waning Gibbous, 61% of the Moon is Illuminated
Feb 13
Waning Gibbous
Feb 14
Last Quarter
Feb 21
New
Feb 29
First Quarter
Mar 8
Full

Hourly Weather History & Observations

Time (CST) Temp. Windchill Dew Point Humidity Pressure Visibility Wind Dir Wind Speed Gust Speed Precip Events Conditions
12:54 AM 28.0 °F - 21.0 °F 75% 30.35 in 10.0 mi Calm Calm - N/A   Clear
1:54 AM 28.0 °F - 23.0 °F 81% 30.34 in 10.0 mi Calm Calm - N/A   Clear
2:54 AM 27.0 °F 23.0 °F 19.9 °F 75% 30.32 in 10.0 mi ESE 3.5 mph - N/A   Clear
3:54 AM 28.0 °F - 21.9 °F 78% 30.30 in 10.0 mi Calm Calm - N/A   Clear
4:54 AM 32.0 °F - 21.9 °F 66% 30.28 in 10.0 mi Calm Calm - N/A   Mostly Cloudy
5:54 AM 34.0 °F 28.8 °F 17.1 °F 50% 30.28 in 10.0 mi ESE 5.8 mph - N/A   Overcast
6:54 AM 35.1 °F 29.3 °F 17.1 °F 48% 30.28 in 10.0 mi SE 6.9 mph - N/A   Mostly Cloudy
7:54 AM 36.0 °F 31.1 °F 16.0 °F 44% 30.29 in 10.0 mi SE 5.8 mph - N/A   Overcast
8:54 AM 37.9 °F 30.0 °F 16.0 °F 41% 30.28 in 10.0 mi SSE 12.7 mph - N/A   Overcast
9:54 AM 43.0 °F 36.4 °F 17.1 °F 35% 30.24 in 10.0 mi SSE 12.7 mph - N/A   Mostly Cloudy
10:54 AM 43.0 °F 37.2 °F 15.1 °F 32% 30.23 in 10.0 mi ESE 10.4 mph - N/A   Overcast
11:54 AM 46.0 °F 41.4 °F 17.1 °F 31% 30.18 in 10.0 mi SE 9.2 mph - N/A   Mostly Cloudy
12:42 PM 44.6 °F 40.2 °F 26.6 °F 49% 30.14 in 9.0 mi SE 8.1 mph - 0.00 in   Light Ice Pellets
12:54 PM 44.1 °F 40.8 °F 28.9 °F 55% 30.14 in 9.0 mi SE 5.8 mph - 0.00 in   Light Ice Pellets
1:54 PM 43.0 °F - 34.0 °F 71% 30.12 in 9.0 mi Calm Calm - 0.04 in   Light Ice Pellets
2:54 PM 43.0 °F 37.7 °F 36.0 °F 76% 30.07 in 10.0 mi ESE 9.2 mph - 0.02 in Rain Light Rain
3:33 PM 42.8 °F 38.6 °F 35.6 °F 76% 30.05 in 4.0 mi ESE 6.9 mph - 0.01 in Rain Light Rain
3:54 PM 42.1 °F 36.1 °F 36.0 °F 79% 30.03 in 6.0 mi ESE 10.4 mph - 0.04 in Rain Light Rain
4:54 PM 42.1 °F 37.7 °F 37.9 °F 85% 30.02 in 4.0 mi ESE 6.9 mph - 0.12 in Rain Light Rain
5:54 PM 42.1 °F 36.6 °F 39.9 °F 92% 29.99 in 4.0 mi ESE 9.2 mph - 0.10 in Rain Rain
6:47 PM 44.6 °F 39.2 °F 41.0 °F 87% 29.99 in 2.5 mi SE 10.4 mph - 0.13 in Rain Light Rain
6:54 PM 44.1 °F 39.0 °F 42.1 °F 93% 29.99 in 2.0 mi SE 9.2 mph - 0.16 in Rain Light Rain
7:05 PM 44.6 °F 39.2 °F 42.8 °F 93% 29.97 in 6.0 mi SE 10.4 mph - 0.02 in Rain Light Rain
7:37 PM 44.6 °F 39.2 °F 42.8 °F 93% 29.95 in 5.0 mi SE 10.4 mph - 0.07 in Rain Light Rain
7:54 PM 45.0 °F 38.9 °F 43.0 °F 93% 29.95 in 6.0 mi SE 12.7 mph - 0.09 in Rain Light Rain
8:45 PM 46.4 °F 40.7 °F 44.6 °F 93% 29.93 in 5.0 mi SE 12.7 mph 21.9 mph 0.07 in Rain Rain
8:54 PM 46.9 °F - 45.0 °F 93% 29.93 in 4.0 mi SE 15.0 mph - 0.09 in Rain Light Rain
9:37 PM 48.2 °F - 44.6 °F 87% 29.99 in 2.5 mi West 9.2 mph 32.2 mph 0.01 in Rain Light Rain
9:45 PM 48.2 °F - 46.4 °F 93% 29.96 in 1.0 mi Variable 4.6 mph 24.2 mph 0.12 in Rain Heavy Rain
9:54 PM 48.0 °F - 46.0 °F 93% 29.97 in 3.0 mi Calm Calm - 0.16 in Rain Rain
10:18 PM 48.2 °F - 44.6 °F 87% 29.96 in 2.5 mi East 8.1 mph - 0.03 in Rain Light Rain
10:27 PM 48.2 °F - 46.4 °F 93% 29.97 in 2.5 mi ESE 3.5 mph - 0.04 in Rain Rain
10:37 PM 48.2 °F - 46.4 °F 93% 29.97 in 2.5 mi Calm Calm - 0.07 in Rain Light Rain
10:54 PM 46.9 °F - 45.0 °F 93% 29.96 in 2.0 mi ESE 9.2 mph - 0.10 in Rain Light Rain
11:04 PM 46.4 °F 41.9 °F 46.4 °F 100% 29.95 in 6.0 mi ESE 9.2 mph - 0.01 in Rain Light Rain
11:32 PM 48.2 °F - 46.4 °F 93% 29.93 in 10.0 mi ESE 6.9 mph - N/A   Overcast
11:54 PM 48.0 °F - 46.0 °F 93% 29.93 in 10.0 mi ESE 4.6 mph - 0.01 in   Overcast